• In Belarus
  • List of Countries
  • For 7 days
  • Water Temperature
  • Satellite Maps
  • Weather Map
  • Weather Widgets
  • user-avatar
    Login

    Hourly Weather Monaco

    Today, 26 March, Tuesday

    Time Temperature Precipitation Wind Pressure Humidity
    00:00 +12°C° 0.1 mm 8 mps 749 mmHg 45%
    01:00 +11°C° 0.4 mm 8 mps 750 mmHg 41%
    02:00 +11°C° 0.4 mm 8 mps 750 mmHg 37%
    03:00 +10°C° 0.4 mm 8 mps 751 mmHg 32%
    04:00 +10°C° 0 mm 8 mps 752 mmHg 32%
    05:00 +9°C° 0 mm 8 mps 753 mmHg 33%
    06:00 +9°C° 0 mm 8 mps 754 mmHg 33%
    07:00 +9°C° 0 mm 8 mps 755 mmHg 33%
    08:00 +10°C° 0 mm 8 mps 755 mmHg 33%
    09:00 +10°C° 0 mm 8 mps 756 mmHg 34%
    10:00 +11°C° 0 mm 7 mps 756 mmHg 29%
    11:00 +13°C° 0 mm 6 mps 756 mmHg 25%
    12:00 +14°C° 0 mm 5 mps 756 mmHg 20%
    13:00 +15°C° 0 mm 5 mps 755 mmHg 19%
    14:00 +15°C° 0 mm 5 mps 755 mmHg 18%
    15:00 +15°C° 0 mm 5 mps 755 mmHg 16%
    16:00 +14°C° 0 mm 4 mps 755 mmHg 19%
    17:00 +13°C° 0 mm 4 mps 756 mmHg 22%
    18:00 +12°C° 0 mm 3 mps 756 mmHg 24%
    19:00 +11°C° 0 mm 3 mps 756 mmHg 24%
    20:00 +11°C° 0 mm 3 mps 757 mmHg 24%
    21:00 +10°C° 0 mm 3 mps 757 mmHg 24%
    22:00 +10°C° 0 mm 3 mps 758 mmHg 25%
    23:00 +10°C° 0 mm 3 mps 758 mmHg 25%

    Tomorrow, 27 March, Wednesday

    Time Temperature Precipitation Wind Pressure Humidity
    00:00 +10°C° 0 mm 3 mps 758 mmHg 26%
    01:00 +10°C° 0 mm 3 mps 758 mmHg 26%
    02:00 +9°C° 0 mm 3 mps 758 mmHg 26%
    03:00 +9°C° 0 mm 3 mps 758 mmHg 27%
    04:00 +9°C° 0 mm 3 mps 758 mmHg 27%
    05:00 +9°C° 0 mm 3 mps 758 mmHg 27%
    06:00 +9°C° 0 mm 2 mps 758 mmHg 27%
    07:00 +11°C° 0 mm 3 mps 759 mmHg 25%
    08:00 +13°C° 0 mm 3 mps 759 mmHg 23%
    09:00 +16°C° 0 mm 3 mps 759 mmHg 21%
    10:00 +17°C° 0 mm 3 mps 759 mmHg 23%
    11:00 +18°C° 0 mm 4 mps 759 mmHg 24%
    12:00 +18°C° 0 mm 4 mps 759 mmHg 25%
    13:00 +18°C° 0 mm 4 mps 759 mmHg 28%
    14:00 +18°C° 0 mm 4 mps 759 mmHg 31%
    15:00 +17°C° 0 mm 4 mps 759 mmHg 34%
    16:00 +16°C° 0 mm 3 mps 759 mmHg 41%
    17:00 +14°C° 0 mm 2 mps 759 mmHg 47%
    18:00 +13°C° 0 mm 1 mps 759 mmHg 53%
    19:00 +12°C° 0 mm 1 mps 760 mmHg 49%
    20:00 +12°C° 0 mm 2 mps 761 mmHg 46%
    21:00 +12°C° 0 mm 2 mps 761 mmHg 43%
    22:00 +12°C° 0 mm 2 mps 761 mmHg 40%
    23:00 +12°C° 0 mm 2 mps 761 mmHg 37%

    Day after tomorrow, 28 March, Thursday

    Time Temperature Precipitation Wind Pressure Humidity
    00:00 +10°C° 0 mm 2 mps 761 mmHg 34%
    01:00 +10°C° 0 mm 2 mps 761 mmHg 34%
    02:00 +10°C° 0 mm 2 mps 761 mmHg 34%
    03:00 +10°C° 0 mm 2 mps 761 mmHg 35%
    04:00 +10°C° 0 mm 2 mps 761 mmHg 35%
    05:00 +10°C° 0 mm 2 mps 761 mmHg 36%
    06:00 +10°C° 0 mm 2 mps 761 mmHg 37%
    07:00 +13°C° 0 mm 2 mps 762 mmHg 35%
    08:00 +15°C° 0 mm 2 mps 762 mmHg 33%
    09:00 +17°C° 0 mm 2 mps 762 mmHg 31%
    10:00 +18°C° 0 mm 3 mps 762 mmHg 32%
    11:00 +18°C° 0 mm 3 mps 762 mmHg 33%
    12:00 +19°C° 0 mm 4 mps 762 mmHg 34%
    13:00 +19°C° 0 mm 3 mps 761 mmHg 36%
    14:00 +18°C° 0 mm 3 mps 761 mmHg 38%
    15:00 +18°C° 0 mm 3 mps 761 mmHg 40%
    16:00 +17°C° 0 mm 2 mps 761 mmHg 44%
    17:00 +15°C° 0 mm 2 mps 761 mmHg 49%
    18:00 +14°C° 0 mm 1 mps 761 mmHg 53%
    19:00 +14°C° 0 mm 2 mps 761 mmHg 50%
    20:00 +14°C° 0 mm 2 mps 762 mmHg 46%
    21:00 +13°C° 0 mm 2 mps 762 mmHg 42%
    22:00 +12°C° 0 mm 3 mps 762 mmHg 39%
    23:00 +12°C° 0 mm 3 mps 762 mmHg 36%

    29 March, Friday

    Time Temperature Precipitation Wind Pressure Humidity
    00:00 +12°C° 0 mm 3 mps 763 mmHg 33%
    01:00 +12°C° 0 mm 3 mps 763 mmHg 33%
    02:00 +12°C° 0 mm 3 mps 763 mmHg 33%
    03:00 +11°C° 0 mm 3 mps 763 mmHg 34%
    04:00 +11°C° 0 mm 3 mps 763 mmHg 35%
    05:00 +11°C° 0 mm 3 mps 763 mmHg 37%
    06:00 +11°C° 0 mm 3 mps 763 mmHg 38%
    07:00 +13°C° 0 mm 4 mps 763 mmHg 38%
    08:00 +15°C° 0 mm 4 mps 763 mmHg 37%
    09:00 +17°C° 0 mm 4 mps 763 mmHg 36%
    10:00 +18°C° 0 mm 4 mps 763 mmHg 38%
    11:00 +17°C° 0 mm 5 mps 763 mmHg 39%
    12:00 +19°C° 0 mm 5 mps 763 mmHg 40%
    13:00 +18°C° 0 mm 4 mps 763 mmHg 41%
    14:00 +18°C° 0 mm 4 mps 762 mmHg 43%
    15:00 +18°C° 0 mm 4 mps 762 mmHg 45%
    16:00 +17°C° 0 mm 3 mps 762 mmHg 50%
    17:00 +15°C° 0 mm 2 mps 762 mmHg 55%
    18:00 +14°C° 0 mm 1 mps 762 mmHg 60%
    19:00 +14°C° 0 mm 1 mps 763 mmHg 56%
    20:00 +13°C° 0 mm 2 mps 763 mmHg 52%
    21:00 +13°C° 0 mm 2 mps 764 mmHg 48%
    22:00 +13°C° 0 mm 2 mps 764 mmHg 46%
    23:00 +13°C° 0 mm 2 mps 763 mmHg 44%

    30 March, Saturday

    Time Temperature Precipitation Wind Pressure Humidity
    00:00 +12°C° 0 mm 2 mps 763 mmHg 42%
    01:00 +12°C° 0 mm 2 mps 763 mmHg 42%
    02:00 +12°C° 0 mm 2 mps 763 mmHg 41%
    03:00 +12°C° 0 mm 2 mps 763 mmHg 40%
    04:00 +12°C° 0 mm 2 mps 763 mmHg 41%
    05:00 +12°C° 0 mm 2 mps 763 mmHg 42%
    06:00 +12°C° 0 mm 2 mps 762 mmHg 42%
    07:00 +13°C° 0 mm 2 mps 762 mmHg 40%
    08:00 +15°C° 0 mm 2 mps 762 mmHg 38%
    09:00 +17°C° 0 mm 2 mps 762 mmHg 36%
    10:00 +18°C° 0 mm 2 mps 762 mmHg 36%
    11:00 +18°C° 0 mm 3 mps 761 mmHg 37%
    12:00 +19°C° 0 mm 3 mps 761 mmHg 37%
    13:00 +19°C° 0 mm 3 mps 760 mmHg 39%
    14:00 +18°C° 0 mm 3 mps 760 mmHg 41%
    15:00 +18°C° 0 mm 3 mps 759 mmHg 43%
    16:00 +17°C° 0 mm 3 mps 759 mmHg 48%
    17:00 +15°C° 0 mm 2 mps 758 mmHg 54%
    18:00 +14°C° 0 mm 2 mps 758 mmHg 60%
    19:00 +14°C° 0 mm 2 mps 758 mmHg 60%
    20:00 +13°C° 0 mm 2 mps 758 mmHg 59%
    21:00 +13°C° 0 mm 2 mps 758 mmHg 59%
    22:00 +13°C° 0 mm 2 mps 758 mmHg 58%
    23:00 +13°C° 0 mm 2 mps 758 mmHg 56%

    31 March, Sunday

    Time Temperature Precipitation Wind Pressure Humidity
    00:00 +13°C° 0 mm 2 mps 757 mmHg 55%
    01:00 +12°C° 0 mm 2 mps 757 mmHg 54%
    02:00 +12°C° 0 mm 2 mps 756 mmHg 52%
    03:00 +12°C° 0 mm 1 mps 756 mmHg 50%
    04:00 +12°C° 0 mm 1 mps 756 mmHg 48%
    05:00 +12°C° 0 mm 1 mps 755 mmHg 46%
    06:00 +12°C° 0 mm 1 mps 755 mmHg 44%
    07:00 +14°C° 0 mm 1 mps 755 mmHg 41%
    08:00 +16°C° 0 mm 1 mps 755 mmHg 37%
    09:00 +18°C° 0 mm 2 mps 755 mmHg 34%
    10:00 +19°C° 0 mm 2 mps 754 mmHg 33%
    11:00 +19°C° 0 mm 3 mps 754 mmHg 32%
    12:00 +20°C° 0 mm 3 mps 754 mmHg 31%
    13:00 +19°C° 0 mm 3 mps 753 mmHg 32%
    14:00 +19°C° 0 mm 3 mps 753 mmHg 33%
    15:00 +19°C° 0 mm 3 mps 753 mmHg 35%
    16:00 +17°C° 0 mm 2 mps 753 mmHg 39%
    17:00 +16°C° 0 mm 1 mps 753 mmHg 44%
    18:00 +14°C° 0 mm 0 mps 753 mmHg 48%
    19:00 +14°C° 0 mm 1 mps 753 mmHg 47%
    20:00 +14°C° 0 mm 1 mps 754 mmHg 46%
    21:00 +14°C° 0 mm 1 mps 754 mmHg 45%
    22:00 +14°C° 0 mm 1 mps 754 mmHg 43%
    23:00 +14°C° 0 mm 2 mps 754 mmHg 42%
    Show more